• în România
  • Lista ţărilor
  • Pe 7 zile
  • Temperatura apei
  • Hartă satelitară
  • Meteo pe hartă
  • Widget-uri
  • user-avatar
    Intrare

    Meteo pe oră la Abutkovo

    Astăzi, 20 Septembrie, Joi

    Timp Temperatura Precipitaţii Vânt Presiune Umiditate
    00:00 +16°C° 0 mm 3 m/s 742 mmHg 94%
    01:00 +16°C° 0 mm 3 m/s 742 mmHg 95%
    02:00 +15°C° 0 mm 2 m/s 742 mmHg 97%
    03:00 +14°C° 0 mm 3 m/s 742 mmHg 97%
    04:00 +14°C° 0 mm 3 m/s 742 mmHg 97%
    05:00 +14°C° 0 mm 3 m/s 742 mmHg 97%
    06:00 +16°C° 0 mm 3 m/s 742 mmHg 94%
    07:00 +17°C° 0 mm 4 m/s 743 mmHg 90%
    08:00 +18°C° 0 mm 4 m/s 743 mmHg 85%
    09:00 +19°C° 0 mm 4 m/s 743 mmHg 78%
    10:00 +20°C° 0 mm 4 m/s 743 mmHg 71%
    11:00 +21°C° 0 mm 4 m/s 743 mmHg 63%
    12:00 +22°C° 0 mm 4 m/s 744 mmHg 61%
    13:00 +22°C° 0 mm 4 m/s 744 mmHg 59%
    14:00 +25°C° 0 mm 3 m/s 743 mmHg 58%
    15:00 +23°C° 0 mm 2 m/s 744 mmHg 64%
    16:00 +21°C° 0 mm 2 m/s 744 mmHg 70%
    17:00 +20°C° 0 mm 2 m/s 744 mmHg 75%
    18:00 +19°C° 0 mm 2 m/s 744 mmHg 80%
    19:00 +18°C° 0 mm 2 m/s 744 mmHg 84%
    20:00 +16°C° 0 mm 2 m/s 744 mmHg 88%
    21:00 +16°C° 0 mm 2 m/s 744 mmHg 89%
    22:00 +15°C° 0 mm 2 m/s 744 mmHg 91%
    23:00 +15°C° 0 mm 2 m/s 744 mmHg 92%

    Mâine, 21 Septembrie, Vineri

    Timp Temperatura Precipitaţii Vânt Presiune Umiditate
    00:00 +15°C° 0 mm 2 m/s 745 mmHg 93%
    01:00 +14°C° 0 mm 2 m/s 745 mmHg 93%
    02:00 +14°C° 0 mm 2 m/s 745 mmHg 94%
    03:00 +14°C° 0 mm 2 m/s 745 mmHg 94%
    04:00 +14°C° 0 mm 2 m/s 745 mmHg 94%
    05:00 +13°C° 0 mm 2 m/s 746 mmHg 94%
    06:00 +15°C° 0 mm 2 m/s 746 mmHg 89%
    07:00 +16°C° 0 mm 2 m/s 746 mmHg 85%
    08:00 +17°C° 0 mm 2 m/s 746 mmHg 80%
    09:00 +19°C° 0 mm 2 m/s 746 mmHg 74%
    10:00 +21°C° 0 mm 2 m/s 746 mmHg 69%
    11:00 +23°C° 0 mm 2 m/s 746 mmHg 63%
    12:00 +24°C° 0 mm 2 m/s 746 mmHg 62%
    13:00 +25°C° 0 mm 2 m/s 746 mmHg 60%
    14:00 +25°C° 0 mm 2 m/s 746 mmHg 59%
    15:00 +24°C° 0 mm 2 m/s 746 mmHg 64%
    16:00 +23°C° 0 mm 2 m/s 746 mmHg 70%
    17:00 +21°C° 0 mm 2 m/s 745 mmHg 76%
    18:00 +19°C° 0 mm 2 m/s 745 mmHg 78%
    19:00 +18°C° 0 mm 2 m/s 745 mmHg 81%
    20:00 +17°C° 0 mm 2 m/s 745 mmHg 84%
    21:00 +17°C° 0 mm 2 m/s 745 mmHg 86%
    22:00 +16°C° 0 mm 2 m/s 745 mmHg 88%
    23:00 +16°C° 0 mm 3 m/s 745 mmHg 90%

    Poimâine, 22 Septembrie, Sâmbătă

    Timp Temperatura Precipitaţii Vânt Presiune Umiditate
    00:00 +16°C° 0 mm 3 m/s 745 mmHg 91%
    01:00 +16°C° 0 mm 3 m/s 745 mmHg 93%
    02:00 +16°C° 0 mm 3 m/s 744 mmHg 94%
    03:00 +16°C° 0 mm 3 m/s 744 mmHg 94%
    04:00 +16°C° 0 mm 3 m/s 744 mmHg 94%
    05:00 +16°C° 0 mm 3 m/s 743 mmHg 94%
    06:00 +17°C° 0 mm 4 m/s 743 mmHg 89%
    07:00 +18°C° 0 mm 4 m/s 743 mmHg 83%
    08:00 +19°C° 0 mm 5 m/s 743 mmHg 78%
    09:00 +20°C° 0 mm 5 m/s 742 mmHg 71%
    10:00 +22°C° 0 mm 6 m/s 742 mmHg 64%
    11:00 +23°C° 0 mm 6 m/s 741 mmHg 57%
    12:00 +24°C° 0 mm 6 m/s 741 mmHg 56%
    13:00 +24°C° 0 mm 6 m/s 741 mmHg 54%
    14:00 +24°C° 0 mm 6 m/s 740 mmHg 53%
    15:00 +23°C° 0.1 mm 5 m/s 740 mmHg 58%
    16:00 +22°C° 0.1 mm 4 m/s 740 mmHg 63%
    17:00 +21°C° 0.1 mm 3 m/s 740 mmHg 68%
    18:00 +19°C° 0.5 mm 3 m/s 740 mmHg 74%
    19:00 +17°C° 0.5 mm 3 m/s 740 mmHg 80%
    20:00 +16°C° 0.5 mm 3 m/s 739 mmHg 86%
    21:00 +14°C° 0.5 mm 3 m/s 739 mmHg 87%
    22:00 +13°C° 0.5 mm 3 m/s 739 mmHg 88%
    23:00 +12°C° 0.5 mm 3 m/s 739 mmHg 89%

    23 Septembrie, Duminică

    Timp Temperatura Precipitaţii Vânt Presiune Umiditate
    00:00 +11°C° 0.2 mm 3 m/s 739 mmHg 89%
    01:00 +11°C° 0.2 mm 3 m/s 739 mmHg 89%
    02:00 +11°C° 0.2 mm 3 m/s 739 mmHg 89%
    03:00 +10°C° 0.9 mm 3 m/s 738 mmHg 90%
    04:00 +10°C° 0.9 mm 3 m/s 738 mmHg 92%
    05:00 +9°C° 0.9 mm 3 m/s 738 mmHg 93%
    06:00 +9°C° 1.4 mm 3 m/s 738 mmHg 93%
    07:00 +8°C° 1.4 mm 3 m/s 737 mmHg 94%
    08:00 +8°C° 1.4 mm 3 m/s 737 mmHg 94%
    09:00 +9°C° 1.4 mm 3 m/s 737 mmHg 93%
    10:00 +9°C° 1.4 mm 3 m/s 737 mmHg 93%
    11:00 +9°C° 1.4 mm 3 m/s 737 mmHg 92%
    12:00 +10°C° 0.2 mm 3 m/s 737 mmHg 88%
    13:00 +11°C° 0.2 mm 3 m/s 737 mmHg 85%
    14:00 +12°C° 0.2 mm 3 m/s 737 mmHg 81%
    15:00 +11°C° 0.1 mm 3 m/s 737 mmHg 82%
    16:00 +11°C° 0.1 mm 3 m/s 737 mmHg 83%
    17:00 +12°C° 0.1 mm 2 m/s 737 mmHg 84%
    18:00 +10°C° 0.1 mm 3 m/s 737 mmHg 86%
    19:00 +9°C° 0.1 mm 3 m/s 737 mmHg 88%
    20:00 +8°C° 0.1 mm 3 m/s 737 mmHg 90%
    21:00 +8°C° 0 mm 3 m/s 738 mmHg 92%
    22:00 +7°C° 0 mm 3 m/s 738 mmHg 93%
    23:00 +7°C° 0 mm 3 m/s 738 mmHg 94%

    24 Septembrie, Luni

    Timp Temperatura Precipitaţii Vânt Presiune Umiditate
    00:00 +7°C° 0 mm 3 m/s 738 mmHg 95%
    01:00 +7°C° 0 mm 3 m/s 738 mmHg 95%
    02:00 +5°C° 0 mm 3 m/s 738 mmHg 96%
    03:00 +5°C° 0 mm 3 m/s 738 mmHg 96%
    04:00 +5°C° 0 mm 3 m/s 738 mmHg 96%
    05:00 +5°C° 0 mm 3 m/s 738 mmHg 96%
    06:00 +5°C° 0 mm 3 m/s 738 mmHg 94%
    07:00 +7°C° 0 mm 3 m/s 738 mmHg 92%
    08:00 +8°C° 0 mm 3 m/s 738 mmHg 89%
    09:00 +9°C° 0 mm 3 m/s 738 mmHg 83%
    10:00 +10°C° 0 mm 3 m/s 738 mmHg 76%
    11:00 +12°C° 0 mm 4 m/s 737 mmHg 69%
    12:00 +12°C° 0.1 mm 3 m/s 737 mmHg 67%
    13:00 +12°C° 0.1 mm 3 m/s 737 mmHg 66%
    14:00 +13°C° 0.1 mm 3 m/s 737 mmHg 65%
    15:00 +12°C° 0.2 mm 3 m/s 736 mmHg 71%
    16:00 +11°C° 0.2 mm 3 m/s 735 mmHg 77%
    17:00 +10°C° 0.2 mm 3 m/s 735 mmHg 83%
    18:00 +9°C° 1.2 mm 3 m/s 734 mmHg 85%
    19:00 +8°C° 1.2 mm 4 m/s 733 mmHg 88%
    20:00 +7°C° 1.2 mm 4 m/s 732 mmHg 91%
    21:00 +7°C° 1.6 mm 5 m/s 731 mmHg 91%
    22:00 +7°C° 1.6 mm 6 m/s 730 mmHg 91%
    23:00 +7°C° 1.6 mm 6 m/s 729 mmHg 92%

    25 Septembrie, Marţi

    Timp Temperatura Precipitaţii Vânt Presiune Umiditate
    00:00 +5°C° 3.1 mm 7 m/s 728 mmHg 92%
    01:00 +5°C° 3.1 mm 7 m/s 727 mmHg 93%
    02:00 +5°C° 3.1 mm 7 m/s 726 mmHg 93%
    03:00 +5°C° 2.7 mm 7 m/s 726 mmHg 93%
    04:00 +5°C° 2.7 mm 7 m/s 726 mmHg 93%
    05:00 +7°C° 2.7 mm 6 m/s 725 mmHg 93%
    06:00 +7°C° 1.4 mm 6 m/s 725 mmHg 93%
    07:00 +5°C° 1.4 mm 6 m/s 725 mmHg 93%
    08:00 +5°C° 1.4 mm 6 m/s 726 mmHg 93%
    09:00 +5°C° 1.7 mm 6 m/s 726 mmHg 93%
    10:00 +5°C° 1.7 mm 7 m/s 726 mmHg 92%
    11:00 +5°C° 1.7 mm 7 m/s 727 mmHg 92%
    12:00 +5°C° 1.3 mm 7 m/s 727 mmHg 91%
    13:00 +5°C° 1.3 mm 8 m/s 728 mmHg 91%
    14:00 +5°C° 1.3 mm 8 m/s 729 mmHg 90%
    15:00 +5°C° 0.8 mm 9 m/s 729 mmHg 89%
    16:00 +5°C° 0.8 mm 9 m/s 730 mmHg 89%
    17:00 +5°C° 0.8 mm 9 m/s 731 mmHg 88%
    18:00 +3°C° 0.5 mm 9 m/s 732 mmHg 87%
    19:00 +3°C° 0.5 mm 9 m/s 732 mmHg 86%
    20:00 +3°C° 0.5 mm 9 m/s 733 mmHg 86%
    21:00 +3°C° 0.4 mm 9 m/s 733 mmHg 86%
    22:00 +4°C° 0.4 mm 8 m/s 734 mmHg 87%
    23:00 +4°C° 0.4 mm 8 m/s 734 mmHg 87%
    Arată mai mult